KD5NDU-15 Weather Reports


time (UTC)temp
C
wind
direction
speed
KPH
gust
KPH
rain 1hr
cm
rain 24hr
cm
rain mn
cm
humidity
%
barometer
mb
20260902105637 23 150 0.0 0.0 0.00 0.00 0.00 92 1017.7
20260902105137 23 150 0.0 1.6 0.00 0.00 0.00 92 1017.6
20260902104637 23 150 0.0 0.0 0.00 0.00 0.00 92 1017.4
20260902104137 23 150 0.0 3.2 0.00 0.00 0.00 92 1017.5
20260902103637 23 139 0.0 0.0 0.00 0.00 0.00 92 1017.4
20260902103137 23 139 0.0 0.0 0.00 0.00 0.00 92 1017.5
20260902102637 23 139 0.0 0.0 0.00 0.00 0.00 92 1017.4
20260902102137 23 139 0.0 0.0 0.00 0.00 0.00 92 1017.3
20260902101637 23 139 0.0 0.0 0.00 0.00 0.00 92 1017.4
20260902101137 23 139 0.0 0.0 0.00 0.00 0.00 92 1017.4
20260902100637 23 139 0.0 0.0 0.00 0.00 0.00 92 1017.5
20260902100137 23 139 0.0 0.0 0.00 0.00 0.00 92 1017.4
20260902095637 23 139 0.0 0.0 0.00 0.00 0.00 92 1017.4
20260902095137 23 139 0.0 0.0 0.00 0.00 0.00 92 1017.3
20260902094637 23 139 0.0 0.0 0.00 0.00 0.00 92 1017.3
20260902094137 23 139 0.0 0.0 0.00 0.00 0.00 92 1017.5
20260902093637 23 139 1.6 0.0 0.00 0.00 0.00 92 1017.4
20260902093137 23 139 1.6 3.2 0.00 0.00 0.00 92 1017.4
20260902092637 23 136 1.6 4.8 0.00 0.00 0.00 91 1017.4
20260902092137 23 132 0.0 0.0 0.00 0.00 0.00 89 1017.3
20260902091637 23 132 0.0 0.0 0.00 0.00 0.00 89 1017.4
20260902091137 24 132 0.0 0.0 0.00 0.00 0.00 89 1017.3
20260902090637 24 132 0.0 0.0 0.00 0.00 0.00 88 1017.2
20260902090137 24 132 0.0 0.0 0.00 0.00 0.00 88 1017.3
20260902085637 24 132 0.0 0.0 0.00 0.00 0.00 88 1017.2
20260902085137 25 132 0.0 1.6 0.00 0.00 0.00 87 1017.1
20260902084637 25 132 0.0 1.6 0.00 0.00 0.00 87 1017.1
20260902084137 25 132 0.0 1.6 0.00 0.00 0.00 86 1017.0
20260902083637 25 132 0.0 3.2 0.00 0.00 0.00 87 1016.9
20260902083137 25 132 0.0 3.2 0.00 0.00 0.00 87 1017.0
20260902082637 24 135 0.0 3.2 0.00 0.00 0.00 88 1017.0
20260902082137 24 134 0.0 3.2 0.00 0.00 0.00 88 1017.0
20260902081637 24 133 0.0 3.2 0.00 0.00 0.00 88 1016.9
20260902081137 24 158 0.0 0.0 0.00 0.00 0.00 88 1016.8
20260902080637 25 158 0.0 0.0 0.00 0.00 0.00 87 1016.9
20260902080137 25 158 0.0 0.0 0.00 0.00 0.00 86 1017.0
20260902075637 25 158 0.0 1.6 0.00 0.00 0.00 85 1016.9
20260902075137 25 158 0.0 1.6 0.00 0.00 0.00 85 1016.9
20260902074637 25 158 0.0 3.2 0.00 0.00 0.00 84 1017.0
20260902074137 25 158 0.0 3.2 0.00 0.00 0.00 84 1017.1
20260902073637 25 158 0.0 1.6 0.00 0.00 0.00 84 1017.1
20260902073137 25 158 0.0 3.2 0.00 0.00 0.00 84 1017.1
20260902072637 25 159 0.0 1.6 0.00 0.00 0.00 85 1017.1
20260902072137 25 159 0.0 1.6 0.00 0.00 0.00 84 1017.0
20260902071637 25 159 0.0 1.6 0.00 0.00 0.00 84 1017.0
20260902071137 25 159 0.0 1.6 0.00 0.00 0.00 84 1017.1
20260902070637 25 159 1.6 3.2 0.00 0.00 0.00 84 1017.1
20260902070137 25 159 0.0 3.2 0.00 0.00 0.00 84 1017.1
20260902065637 25 159 0.0 1.6 0.00 0.00 0.00 84 1016.9
20260902065137 26 160 0.0 1.6 0.00 0.00 0.00 84 1017.0
20260902064637 26 160 0.0 1.6 0.00 0.00 0.00 83 1017.1
20260902064137 26 160 0.0 3.2 0.00 0.00 0.00 83 1017.1
20260902063637 26 160 0.0 3.2 0.00 0.00 0.00 83 1017.0
20260902063137 26 160 1.6 1.6 0.00 0.00 0.00 83 1017.2
20260902062637 26 162 1.6 6.4 0.00 0.00 0.00 83 1017.1
20260902062137 26 129 1.6 3.2 0.00 0.00 0.00 84 1017.2
20260902061637 26 107 0.0 3.2 0.00 0.00 0.00 83 1017.2
20260902061137 26 110 0.0 1.6 0.00 0.00 0.00 83 1017.1
20260902060637 26 105 0.0 3.2 0.00 0.00 0.00 83 1017.1
20260902060137 26 105 0.0 3.2 0.00 0.00 0.00 83 1017.1
20260902055637 26 120 1.6 3.2 0.00 0.00 0.00 83 1017.2
20260902055137 26 121 1.6 4.8 0.00 0.00 0.00 83 1017.2
20260902054637 26 81 0.0 3.2 0.00 0.00 0.00 83 1017.2
20260902054137 26 76 0.0 1.6 0.00 0.00 0.00 82 1017.3
20260902053637 26 98 0.0 1.6 0.00 0.00 0.00 82 1017.2
20260902053137 26 82 0.0 4.8 0.00 0.00 0.00 82 1017.2
20260902052637 26 81 0.0 1.6 0.00 0.00 0.00 81 1017.1
20260902052137 26 89 0.0 1.6 0.00 0.00 0.00 81 1017.0
20260902051637 26 89 0.0 3.2 0.00 0.00 0.00 80 1017.0
20260902051137 26 91 0.0 4.8 0.00 0.00 0.00 80 1017.1
20260902050637 27 119 0.0 1.6 0.00 0.00 0.00 80 1017.1
20260902050137 27 119 0.0 1.6 0.00 0.00 0.00 79 1017.1
20260902045637 27 116 1.6 3.2 0.00 0.00 0.00 79 1017.1
20260902045137 27 109 1.6 4.8 0.00 0.00 0.00 79 1017.1
20260902044637 27 100 1.6 6.4 0.00 0.00 0.00 78 1017.2
20260902044137 27 143 1.6 4.8 0.00 0.00 0.00 78 1017.1
20260902043637 27 153 1.6 6.4 0.00 0.00 0.00 78 1017.1
20260902043137 27 172 1.6 8.0 0.00 0.00 0.00 78 1017.1
20260902042637 27 164 0.0 4.8 0.00 0.00 0.00 78 1017.1
20260902042137 27 176 1.6 3.2 0.00 0.00 0.00 77 1017.1
20260902041637 27 134 1.6 6.4 0.00 0.00 0.00 77 1017.1
20260902041137 27 113 1.6 4.8 0.00 0.00 0.00 77 1017.0
20260902040637 27 154 1.6 8.0 0.00 0.00 0.00 77 1017.1
20260902040137 27 141 1.6 6.4 0.00 0.00 0.00 77 1017.2
20260902035637 28 174 1.6 4.8 0.00 0.00 0.00 78 1017.3
20260902035137 28 176 1.6 4.8 0.00 0.00 0.00 75 1017.3
20260902034637 28 158 1.6 4.8 0.00 0.00 0.00 75 1017.3
20260902034137 28 162 1.6 4.8 0.00 0.00 0.00 75 1017.3
20260902033637 28 141 1.6 1.6 0.00 0.00 0.00 74 1017.4
20260902033137 28 100 1.6 4.8 0.00 0.00 0.00 74 1017.4
20260902032637 28 174 1.6 4.8 0.00 0.00 0.00 74 1017.3
20260902032137 28 161 1.6 4.8 0.00 0.00 0.00 74 1017.3
20260902031637 28 158 1.6 3.2 0.00 0.00 0.00 74 1017.3
20260902031137 28 160 1.6 3.2 0.00 0.00 0.00 74 1017.4
20260902030637 28 133 0.0 4.8 0.00 0.00 0.00 74 1017.4
20260902030137 28 153 1.6 3.2 0.00 0.00 0.00 75 1017.4
20260902025637 28 153 1.6 4.8 0.00 0.00 0.00 75 1017.4
20260902025137 28 153 0.0 4.8 0.00 0.00 0.00 74 1017.4
20260902024637 28 108 0.0 0.0 0.00 0.00 0.00 74 1017.4
20260902024137 28 89 0.0 0.0 0.00 0.00 0.00 75 1017.3
20260902023637 29 89 0.0 0.0 0.00 0.00 0.00 71 1017.1
20260902023137 29 89 0.0 0.0 0.00 0.00 0.00 72 1017.1
20260902022637 30 89 0.0 0.0 0.00 0.00 0.00 70 1017.0
20260902022137 30 89 0.0 1.6 0.00 0.00 0.00 70 1016.9
20260902021637 30 89 0.0 3.2 0.00 0.00 0.00 69 1016.9
20260902021137 30 90 0.0 1.6 0.00 0.00 0.00 70 1017.0
20260902020637 30 89 0.0 3.2 0.00 0.00 0.00 70 1017.0
20260902020137 30 78 0.0 3.2 0.00 0.00 0.00 69 1016.8
20260902015637 29 78 0.0 4.8 0.00 0.00 0.00 70 1016.6
20260902015137 29 198 0.0 0.0 0.00 0.00 0.00 69 1016.5
20260902014637 30 203 0.0 0.0 0.00 0.00 0.00 69 1016.5
20260902014137 30 203 0.0 0.0 0.00 0.00 0.00 69 1016.5
20260902013637 30 203 0.0 0.0 0.00 0.00 0.00 70 1016.2
20260902013137 30 203 0.0 0.0 0.00 0.00 0.00 69 1016.2
20260902012637 30 203 0.0 0.0 0.00 0.00 0.00 69 1016.2
20260902012137 30 204 0.0 0.0 0.00 0.00 0.00 69 1016.2
20260902011637 30 204 0.0 0.0 0.00 0.00 0.00 70 1016.0
20260902011137 30 204 0.0 0.0 0.00 0.00 0.00 70 1016.0
20260902010637 30 204 0.0 0.0 0.00 0.00 0.00 68 1016.0
20260902010137 31 204 0.0 0.0 0.00 0.00 0.00 67 1016.1
20260902005637 31 204 0.0 0.0 0.00 0.00 0.00 66 1016.1
20260902005137 31 204 0.0 0.0 0.00 0.00 0.00 65 1016.1
20260902004637 31 204 0.0 0.0 0.00 0.00 0.00 64 1016.1
20260902004137 31 204 0.0 0.0 0.00 0.00 0.00 63 1016.1
20260902003637 32 204 0.0 0.0 0.00 0.00 0.00 62 1016.2
20260902003137 32 204 0.0 0.0 0.00 0.00 0.00 62 1016.1
20260902002637 32 204 0.0 0.0 0.00 0.00 0.00 60 1016.0
20260902002137 32 204 0.0 0.0 0.00 0.00 0.00 60 1015.9
20260902001637 32 204 0.0 1.6 0.00 0.00 0.00 59 1015.9
20260902001137 33 204 0.0 1.6 0.00 0.00 0.00 59 1015.9
20260902000637 33 204 1.6 3.2 0.00 0.00 0.00 58 1015.9
20260902000137 33 204 1.6 4.8 0.00 0.00 0.00 58 1015.9
20260901235637 33 214 3.2 4.8 0.00 0.00 0.00 58 1015.9
20260901235137 33 192 3.2 6.4 0.00 0.00 0.00 57 1016.0
20260901234637 33 193 3.2 6.4 0.00 0.00 0.00 56 1016.0
20260901234137 34 203 3.2 8.0 0.00 0.00 0.00 55 1016.1
20260901233637 34 213 3.2 9.7 0.00 0.00 0.00 55 1016.1
20260901233137 34 185 3.2 8.0 0.00 0.00 0.00 54 1016.1
20260901232638 34 238 3.2 6.4 0.00 0.00 0.00 55 1016.2
20260901232138 35 208 3.2 8.0 0.00 0.00 0.00 54 1016.2
20260901231638 35 186 3.2 8.0 0.00 0.00 0.00 53 1016.3
20260901231138 35 160 3.2 9.7 0.00 0.00 0.00 53 1016.3
20260901230638 35 160 3.2 6.4 0.00 0.00 0.00 53 1016.3
20260901230138 35 99 3.2 8.0 0.00 0.00 0.00 53 1016.2
20260901225638 35 152 3.2 6.4 0.00 0.00 0.00 53 1016.2
20260901225138 35 117 3.2 6.4 0.00 0.00 0.00 52 1016.2
20260901224638 36 178 3.2 3.2 0.00 0.00 0.00 52 1016.3
20260901224138 36 165 3.2 6.4 0.00 0.00 0.00 52 1016.3
20260901223638 36 170 3.2 8.0 0.00 0.00 0.00 52 1016.3
20260901223138 36 82 3.2 6.4 0.00 0.00 0.00 52 1016.3
20260901222638 36 172 3.2 9.7 0.00 0.00 0.00 51 1016.1
20260901222138 36 137 4.8 11.3 0.00 0.00 0.00 51 1016.2
20260901221638 36 138 3.2 6.4 0.00 0.00 0.00 50 1016.2
20260901221138 36 194 3.2 8.0 0.00 0.00 0.00 50 1016.1
20260901220638 36 129 4.8 8.0 0.00 0.00 0.00 50 1016.2
20260901220138 36 252 4.8 8.0 0.00 0.00 0.00 50 1016.2
20260901215638 36 207 3.2 12.9 0.00 0.00 0.00 49 1016.3
20260901215138 36 85 3.2 6.4 0.00 0.00 0.00 49 1016.3
20260901214638 36 162 4.8 12.9 0.00 0.00 0.00 51 1016.4
20260901214138 36 135 4.8 16.1 0.00 0.00 0.00 50 1016.4
20260901213638 37 154 3.2 16.1 0.00 0.00 0.00 50 1016.5
20260901213138 37 157 3.2 9.7 0.00 0.00 0.00 51 1016.4
20260901212638 37 72 3.2 9.7 0.00 0.00 0.00 51 1016.4
20260901212138 36 164 4.8 11.3 0.00 0.00 0.00 51 1016.4
20260901211638 36 113 6.4 9.7 0.00 0.00 0.00 52 1016.4
20260901211138 36 167 4.8 14.5 0.00 0.00 0.00 52 1016.5
20260901210638 36 155 4.8 8.0 0.00 0.00 0.00 51 1016.5
20260901210138 36 23 4.8 12.9 0.00 0.00 0.00 51 1016.6
20260901205638 36 153 4.8 16.1 0.00 0.00 0.00 52 1016.6
20260901205138 36 12 4.8 12.9 0.00 0.00 0.00 52 1016.6
20260901204638 36 194 4.8 12.9 0.00 0.00 0.00 50 1016.7
20260901204138 37 136 4.8 12.9 0.00 0.00 0.00 49 1016.8
20260901203638 37 119 3.2 8.0 0.00 0.00 0.00 49 1016.7
20260901203138 37 151 4.8 9.7 0.00 0.00 0.00 49 1016.7
20260901202638 36 359 4.8 14.5 0.00 0.00 0.00 50 1016.8
20260901202138 36 179 4.8 12.9 0.00 0.00 0.00 50 1016.9
20260901201638 36 183 4.8 12.9 0.00 0.00 0.00 51 1017.0
20260901201138 36 61 4.8 9.7 0.00 0.00 0.00 52 1017.1
20260901200638 36 77 3.2 12.9 0.00 0.00 0.00 52 1017.0
20260901200138 35 125 4.8 9.7 0.00 0.00 0.00 54 1017.2
20260901195638 35 144 4.8 12.9 0.00 0.00 0.00 53 1017.2
20260901195138 36 37 3.2 9.7 0.00 0.00 0.00 52 1017.1
20260901194638 36 334 3.2 11.3 0.00 0.00 0.00 51 1017.2
20260901194138 35 180 3.2 6.4 0.00 0.00 0.00 50 1017.3
20260901193638 36 157 3.2 9.7 0.00 0.00 0.00 48 1017.5
20260901193138 36 104 3.2 9.7 0.00 0.00 0.00 49 1017.3
20260901192638 37 230 1.6 8.0 0.00 0.00 0.00 48 1017.3
20260901192138 37 229 3.2 6.4 0.00 0.00 0.00 46 1017.5
20260901191638 37 238 4.8 6.4 0.00 0.00 0.00 48 1017.6
20260901191138 36 199 4.8 9.7 0.00 0.00 0.00 48 1017.6
20260901190638 36 125 3.2 9.7 0.00 0.00 0.00 50 1017.6
20260901190138 35 214 1.6 8.0 0.00 0.00 0.00 54 1017.7
20260901185638 35 119 1.6 4.8 0.00 0.00 0.00 54 1017.8
20260901185138 35 232 3.2 6.4 0.00 0.00 0.00 54 1017.8
20260901184638 35 174 3.2 6.4 0.00 0.00 0.00 53 1017.9
20260901184138 35 160 4.8 9.7 0.00 0.00 0.00 51 1017.9
20260901183638 35 237 4.8 12.9 0.00 0.00 0.00 52 1017.9
20260901183138 35 182 4.8 8.0 0.00 0.00 0.00 53 1018.0
20260901182638 35 231 4.8 9.7 0.00 0.00 0.00 54 1018.0
20260901182138 35 238 4.8 8.0 0.00 0.00 0.00 54 1018.1
20260901181638 35 206 4.8 8.0 0.00 0.00 0.00 52 1018.2
20260901181138 36 266 3.2 8.0 0.00 0.00 0.00 51 1018.2
20260901180638 36 33 3.2 8.0 0.00 0.00 0.00 53 1018.3
20260901180138 37 185 3.2 6.4 0.00 0.00 0.00 51 1018.5
20260901175638 37 23 3.2 6.4 0.00 0.00 0.00 52 1018.5
20260901175138 37 0 1.6 6.4 0.00 0.00 0.00 53 1018.5
20260901174638 36 27 1.6 4.8 0.00 0.00 0.00 55 1018.6
20260901174138 36 134 3.2 8.0 0.00 0.00 0.00 54 1018.7
20260901173638 36 198 3.2 9.7 0.00 0.00 0.00 55 1018.7
20260901173138 36 175 3.2 6.4 0.00 0.00 0.00 56 1018.9
20260901172638 36 175 4.8 8.0 0.00 0.00 0.00 55 1018.9
20260901172138 36 135 4.8 11.3 0.00 0.00 0.00 56 1018.9
20260901171638 35 230 4.8 11.3 0.00 0.00 0.00 56 1019.0
20260901171138 35 258 6.4 12.9 0.00 0.00 0.00 57 1019.0
20260901170638 35 191 6.4 14.5 0.00 0.00 0.00 57 1019.0
20260901170138 35 236 6.4 9.7 0.00 0.00 0.00 57 1019.2
20260901165638 36 238 4.8 11.3 0.00 0.00 0.00 56 1019.2
20260901165138 36 24 4.8 9.7 0.00 0.00 0.00 57 1019.2
20260901164638 35 252 4.8 8.0 0.00 0.00 0.00 58 1019.0
20260901164138 35 162 1.6 12.9 0.00 0.00 0.00 59 1019.0
20260901163638 34 209 3.2 4.8 0.00 0.00 0.00 62 1019.0
20260901163138 34 212 3.2 9.7 0.00 0.00 0.00 61 1019.2
20260901162638 33 200 4.8 6.4 0.00 0.00 0.00 63 1019.2
20260901162138 33 240 4.8 8.0 0.00 0.00 0.00 61 1019.2
20260901161638 33 259 3.2 6.4 0.00 0.00 0.00 60 1019.3
20260901161138 33 131 3.2 4.8 0.00 0.00 0.00 60 1019.3
20260901160638 34 205 4.8 9.7 0.00 0.00 0.00 61 1019.3
20260901160138 33 231 4.8 11.3 0.00 0.00 0.00 62 1019.3
20260901155638 33 236 6.4 9.7 0.00 0.00 0.00 61 1019.4
20260901155138 34 175 4.8 11.3 0.00 0.00 0.00 63 1019.5
20260901154638 34 200 3.2 9.7 0.00 0.00 0.00 61 1019.5
20260901154138 35 198 1.6 6.4 0.00 0.00 0.00 61 1019.7
20260901153638 35 3 1.6 3.2 0.00 0.00 0.00 62 1019.8
20260901153138 34 307 1.6 4.8 0.00 0.00 0.00 64 1019.8
20260901152638 34 45 1.6 4.8 0.00 0.00 0.00 65 1019.9
20260901152138 33 222 1.6 1.6 0.00 0.00 0.00 67 1019.9
20260901151638 33 221 3.2 4.8 0.00 0.00 0.00 68 1019.7
20260901151138 33 231 3.2 8.0 0.00 0.00 0.00 68 1019.6
20260901150638 33 218 1.6 6.4 0.00 0.00 0.00 69 1019.7
20260901150138 33 130 0.0 4.8 0.00 0.00 0.00 69 1019.6
20260901145638 32 162 1.6 3.2 0.00 0.00 0.00 68 1019.6
20260901145138 32 229 1.6 4.8 0.00 0.00 0.00 69 1019.6
20260901144638 32 153 1.6 4.8 0.00 0.00 0.00 71 1019.6
20260901144138 32 1 1.6 3.2 0.00 0.00 0.00 71 1019.8
20260901143638 31 244 1.6 4.8 0.00 0.00 0.00 72 1019.6
20260901143138 31 257 1.6 1.6 0.00 0.00 0.00 75 1019.5
20260901142638 31 257 1.6 4.8 0.00 0.00 0.00 75 1019.5
20260901142138 30 250 1.6 4.8 0.00 0.00 0.00 76 1019.4
20260901141638 30 259 1.6 1.6 0.00 0.00 0.00 76 1019.5
20260901141138 30 257 1.6 6.4 0.00 0.00 0.00 77 1019.6
20260901140638 30 214 0.0 1.6 0.00 0.00 0.00 77 1019.6
20260901140138 30 214 0.0 1.6 0.00 0.00 0.00 79 1019.6
20260901135638 29 212 0.0 3.2 0.00 0.00 0.00 80 1019.7
20260901135138 28 211 1.6 1.6 0.00 0.00 0.00 81 1019.8
20260901134638 28 211 1.6 4.8 0.00 0.00 0.00 82 1019.6
20260901134138 27 212 1.6 3.2 0.00 0.00 0.00 82 1019.5
20260901133638 27 212 1.6 3.2 0.00 0.00 0.00 85 1019.6
20260901133138 26 217 1.6 3.2 0.00 0.00 0.00 87 1019.6
20260901132638 26 217 1.6 4.8 0.00 0.00 0.00 89 1019.5
20260901132138 25 217 1.6 4.8 0.00 0.00 0.00 90 1019.5
20260901131638 25 217 1.6 4.8 0.00 0.00 0.00 92 1019.4
20260901131138 25 217 1.6 4.8 0.00 0.00 0.00 92 1019.4
20260901130638 24 217 1.6 0.0 0.00 0.00 0.00 94 1019.3
20260901130138 23 216 1.6 6.4 0.00 0.00 0.00 94 1019.2
20260901125638 23 214 0.0 4.8 0.00 0.00 0.00 94 1019.2
20260901125138 23 163 0.0 0.0 0.00 0.00 0.00 94 1019.2
20260901124638 22 163 0.0 0.0 0.00 0.00 0.00 95 1019.2
20260901124138 22 163 0.0 0.0 0.00 0.00 0.00 94 1019.3
20260901123638 22 163 0.0 0.0 0.00 0.00 0.00 95 1019.3
20260901123138 22 163 0.0 0.0 0.00 0.00 0.00 95 1019.2
20260901122638 22 163 0.0 0.0 0.00 0.00 0.00 95 1019.2
20260901122138 22 163 0.0 0.0 0.00 0.00 0.00 95 1019.2
20260901121638 22 163 0.0 0.0 0.00 0.00 0.00 95 1019.1
20260901121138 22 163 0.0 0.0 0.00 0.00 0.00 95 1019.0
20260901120638 21 163 0.0 0.0 0.00 0.00 0.00 95 1019.1
20260901120138 21 165 0.0 0.0 0.00 0.00 0.00 95 1019.0
20260901115638 21 165 0.0 0.0 0.00 0.00 0.00 95 1018.9
20260901115138 21 165 0.0 0.0 0.00 0.00 0.00 95 1018.8
20260901114638 21 165 0.0 0.0 0.00 0.00 0.00 95 1018.9
20260901114138 21 165 0.0 0.0 0.00 0.00 0.00 95 1018.8
20260901113638 21 165 0.0 1.6 0.00 0.00 0.00 95 1018.8
20260901113138 21 163 0.0 0.0 0.00 0.00 0.00 95 1018.7
20260901112638 21 163 0.0 0.0 0.00 0.00 0.00 95 1018.7
20260901112138 21 163 0.0 0.0 0.00 0.00 0.00 95 1018.6
20260901111638 21 163 0.0 0.0 0.00 0.00 0.00 95 1018.7
20260901111138 21 109 0.0 0.0 0.00 0.00 0.00 95 1018.5
20260901110638 21 109 0.0 0.0 0.00 0.00 0.00 94 1018.6
20260901110138 21 109 0.0 1.6 0.00 0.00 0.00 94 1018.5